[[{"header":{"parameterUnit":"m.s-1","parameterCategory":1,"la1":30.2991,"la2":30.254,"lo1":-89.0895,"lo2":-89.0444,"dy":0.0017,"dx":0.0017,"nx":28,"ny":28,"refTime":"2024-10-19T09:00:00:Z","depth":0,"parameterNumber":2,"parameterNumberName":"U-component_of_WINDS"},"data":[0,0,0,0,0,0,0,0,0,0,0,0,0,0,0,0,0,0,0,0,0,0,0,0,0,0,0,0,0,0,0,0,0,0,0,0,0,0,0,0,0,0,0,0,0,0,0,0,0,0,0,0,0,0,0,0,0,0,-5.1916,-5.1916,0,-5.1925,-5.1925,-5.1925,-5.181,-5.1807,-5.1804,-5.1801,-5.1811,-5.1814,-5.1817,0,0,0,0,0,0,0,0,0,0,0,0,0,-5.1804,-5.1807,-5.1916,-5.1916,-5.1917,-5.1925,-5.1925,-5.1925,-5.181,-5.1807,-5.1803,-5.1799,-5.181,-5.1814,-5.1818,0,0,0,0,0,0,0,0,0,0,0,0,0,-5.1837,-5.1808,-5.1916,-5.186,-5.1855,-5.1925,-5.1925,-5.1925,-5.1811,-5.1807,-5.1802,-5.1798,-5.1809,-5.1813,-5.1818,-5.1942,0,0,-5.1833,-5.1835,0,0,0,0,0,0,0,0,-5.1835,-5.1841,-5.1869,-5.1864,-5.1859,-5.1861,-5.1889,-5.1931,-5.1812,-5.1828,-5.1801,-5.1795,-5.1832,-5.1834,-5.1846,-5.1942,-5.1942,-5.1833,-5.1836,-5.1838,-5.1839,0,0,0,0,0,0,0,-5.1833,-5.184,-5.192,-5.1869,-5.1863,-5.1836,-5.1835,-5.1896,-5.1856,-5.1826,-5.1818,-5.1821,-5.1828,-5.1842,-5.1846,-5.1943,-5.1833,-5.1837,-5.184,-5.1842,-5.2142,-5.2147,0,0,0,0,0,0,-5.1838,-5.1839,-5.1919,-5.192,-5.1835,-5.1842,-5.1841,-5.1865,-5.1855,-5.1849,-5.1825,-5.1815,-5.1836,-5.184,-5.1846,-5.1991,-5.1838,-5.1843,-5.1845,-5.2137,-5.2144,-5.2149,0,0,0,0,0,0,-5.1836,-5.1846,-5.1919,-5.1877,-5.1884,-5.1848,-5.1877,-5.1868,-5.1881,-5.1854,-5.1846,-5.1846,-5.1832,-5.1839,-5.1919,-5.199,-5.1845,-5.1849,-5.2131,-5.2139,-5.2146,-5.2283,0,0,0,0,0,0,-5.1833,-5.1846,-5.1892,-5.1879,-5.1887,-5.1992,-5.1881,-5.1872,-5.189,-5.1878,-5.1872,-5.1866,-5.1829,-5.1912,-5.1924,-5.1994,-5.1853,-5.2125,-5.2135,-5.2144,-5.2272,-5.2294,-5.2313,0,0,0,0,0,-5.183,-5.193,-5.1895,-5.1905,-5.1943,-5.1996,-5.2001,-5.1956,-5.1896,-5.1943,-5.1925,-5.1866,-5.198,-5.1922,-5.1933,-5.2006,-5.212,-5.2132,-5.2143,-5.2262,-5.229,-5.2313,0,0,0,0,0,0,-5.1953,-5.1927,-5.1888,-5.1987,-5.1995,-5.1977,-5.2034,-5.1986,-5.2011,-5.1998,-5.1942,-5.1942,-5.2032,-5.2026,-5.1962,-5.2126,-5.204,-5.2054,-5.2126,-5.2152,-5.2172,-5.2173,-5.1857,0,0,0,0,0,-5.1991,-5.2035,-5.2011,-5.2101,-5.2107,-5.207,-5.2091,-5.2056,-5.2062,-5.2064,-5.2052,-5.2061,-5.2099,-5.2125,-5.2157,-5.227,-5.2268,-5.2326,-5.2346,-5.2364,-5.2377,-5.2439,-5.2465,-5.2187,-5.2187,-5.2187,0,0,-5.2071,-5.2063,-5.2094,-5.2125,-5.2127,-5.2175,-5.2073,-5.2128,-5.2164,-5.2073,-5.2148,-5.214,-5.2146,-5.2243,-5.2286,-5.2242,-5.2454,-5.2378,-5.2392,-5.2397,-5.2453,-5.248,-5.2503,-5.2195,-5.2193,-5.2192,0,0,-5.2243,-5.224,-5.2316,-5.232,-5.2323,-5.2299,-5.2317,-5.2307,-5.2298,-5.2372,-5.2306,-5.2347,-5.2413,-5.242,-5.2433,-5.2609,-5.2557,-5.2621,-5.273,-5.2791,-5.2813,-5.2832,-5.2897,-5.292,-5.2635,-5.2635,-5.2635,0,-5.2342,-5.2412,-5.2361,-5.2421,-5.2437,-5.2356,-5.2433,-5.244,-5.2455,-5.2469,-5.2419,-5.2501,-5.2499,-5.2598,-5.2641,-5.2653,-5.2674,-5.2622,-5.2813,-5.2832,-5.2849,-5.2911,-5.2935,-5.2643,-5.2642,-5.2641,-5.264,0,-5.2535,-5.2584,-5.2645,-5.2662,-5.2684,-5.2753,-5.2713,-5.2743,-5.2706,-5.2687,-5.2765,-5.276,-5.2791,-5.2812,-5.2776,-5.2907,-5.288,-5.2823,-5.2735,-5.2885,-5.2941,-5.2964,-5.2654,-5.2651,-5.2649,-5.2647,0,0,-5.2784,-5.2772,-5.2796,-5.2803,-5.2802,-5.284,-5.2905,-5.2936,-5.2963,-5.2976,-5.3031,-5.3089,-5.3036,-5.3051,-5.3015,-5.3068,-5.3211,-5.3004,-5.3004,-5.3045,-5.3357,-5.3402,-5.343,-5.3176,-5.318,-5.3183,-5.3357,0,-5.2953,-5.3063,-5.302,-5.3134,-5.318,-5.3105,-5.3162,-5.3168,-5.3153,-5.319,-5.3172,-5.3215,-5.3142,-5.315,-5.3199,-5.3183,-5.3273,-5.317,-5.3228,-5.323,-5.3231,-5.3459,-5.3506,-5.367,-5.3379,-5.3383,-5.3385,0,-5.3164,-5.3186,-5.3306,-5.3298,-5.3316,-5.3368,-5.3393,-5.3429,-5.3436,-5.3421,-5.3438,-5.3391,-5.3456,-5.3368,-5.3457,-5.3388,-5.3409,-5.3405,-5.3411,-5.3416,-5.3318,-5.3472,-5.3722,-5.3747,-5.3419,-5.3417,-5.3414,0,-5.3337,-5.3396,-5.3476,-5.3484,-5.3477,-5.3516,-5.3515,-5.3516,-5.3538,-5.356,-5.3574,-5.3604,-5.3621,-5.3646,-5.3609,-5.3548,-5.3706,-5.3614,-5.3697,-5.3698,-5.3734,-5.3733,-5.3993,-5.3745,-5.3745,-5.3744,-5.3744,0,-5.353,-5.3607,-5.3553,-5.3603,-5.3687,-5.3636,-5.3721,-5.3712,-5.3714,-5.3761,-5.3697,-5.3743,-5.3691,-5.3732,-5.3704,-5.3784,-5.3792,-5.3783,-5.3775,-5.379,-5.3791,-5.3804,-5.3792,-5.3751,-5.3749,-5.3748,-5.3747,0,-5.3738,-5.3705,-5.3787,-5.3774,-5.3772,-5.3835,-5.3824,-5.387,-5.3849,-5.391,-5.3922,-5.389,-5.3936,-5.3901,-5.3946,-5.3927,-5.4033,-5.4008,-5.4032,-5.4025,-5.4111,-5.4105,-5.439,-5.4426,-5.4153,-5.4156,-5.4158,0,-5.3864,-5.3922,-5.3915,-5.3942,-5.3945,-5.3989,-5.4011,-5.3964,-5.399,-5.4002,-5.4047,-5.4087,-5.4116,-5.4193,-5.4175,-5.4209,-5.4186,-5.4283,-5.4191,-5.4205,-5.419,-5.4188,-5.4194,-5.4303,-5.4306,-5.4309,-5.4311,0,-5.4094,-5.4075,-5.4109,-5.4138,-5.4167,-5.4187,-5.4203,-5.4229,-5.4181,-5.4214,-5.4259,-5.4283,-5.4329,-5.437,-5.4398,-5.4398,-5.4348,-5.434,-5.4361,-5.4378,-5.4391,-5.4387,-5.4085,-5.4334,-5.4332,-5.433,-5.4329,-5.4328,-5.4266,-5.4314,-5.4317,-5.4358,-5.4365,-5.4382,-5.4425,-5.441,-5.4447,-5.4481,-5.4451,-5.4506,-5.4513,-5.4545,-5.4552,-5.4595,-5.4555,-5.4586,-5.4594,-5.4603,-5.4616,-5.4382,-5.46,-5.4599,-5.4599,-5.4598,-5.4598,0,-5.4494,-5.4492,-5.453,-5.4554,-5.4587,-5.4536,-5.4551,-5.4582,-5.4632,-5.4641,-5.4672,-5.4726,-5.4766,-5.4752,-5.4787,-5.4826,-5.4804,-5.4837,-5.4835,-5.4836,-5.4649,-5.4628,-5.4854,-5.4854,-5.4854,-5.4854,-5.4854,-5.4854,-5.4616,-5.4696,-5.4678,-5.4761,-5.4758,-5.4812,-5.4826,-5.4842,-5.4849,-5.4912,-5.4945,-5.4935,-5.4936,-5.4972,-5.5007,-5.5002,-5.5019,-5.5061,-5.5048,-5.4874,-5.4849,-5.4825,-5.4805,-5.5065,-5.5065,-5.5232,-5.5233,-5.5235]},{"header":{"parameterUnit":"m.s-1","parameterCategory":1,"la1":30.2991,"la2":30.254,"lo1":-89.0895,"lo2":-89.0444,"dy":0.0017,"dx":0.0017,"nx":28,"ny":28,"refTime":"2024-10-19T09:00:00:Z","depth":0,"parameterNumber":3,"parameterNumberName":"V-component_of_WINDS"},"data":[0,0,0,0,0,0,0,0,0,0,0,0,0,0,0,0,0,0,0,0,0,0,0,0,0,0,0,0,0,0,0,0,0,0,0,0,0,0,0,0,0,0,0,0,0,0,0,0,0,0,0,0,0,0,0,0,0,0,-1.5855,-1.5855,0,-1.588,-1.588,-1.588,-1.5835,-1.5833,-1.5832,-1.583,-1.5856,-1.5859,-1.5861,0,0,0,0,0,0,0,0,0,0,0,0,0,-1.5767,-1.5769,-1.5855,-1.5855,-1.5855,-1.588,-1.588,-1.588,-1.5835,-1.5833,-1.5831,-1.583,-1.5856,-1.5858,-1.5861,0,0,0,0,0,0,0,0,0,0,0,0,0,-1.58,-1.5769,-1.5855,-1.5836,-1.5834,-1.588,-1.588,-1.588,-1.5835,-1.5833,-1.5831,-1.5829,-1.5855,-1.5858,-1.5861,-1.5926,0,0,-1.5871,-1.5872,0,0,0,0,0,0,0,0,-1.5798,-1.5803,-1.5838,-1.5837,-1.5835,-1.5852,-1.5859,-1.5896,-1.5836,-1.5835,-1.583,-1.5828,-1.5857,-1.586,-1.5869,-1.5928,-1.5929,-1.5871,-1.5873,-1.5874,-1.5875,0,0,0,0,0,0,0,-1.5796,-1.5802,-1.5864,-1.5839,-1.5837,-1.5826,-1.5828,-1.5865,-1.5858,-1.5835,-1.5832,-1.5835,-1.5856,-1.5866,-1.587,-1.5929,-1.5871,-1.5874,-1.5876,-1.5877,-1.6042,-1.6045,0,0,0,0,0,0,-1.5796,-1.58,-1.5864,-1.5865,-1.5811,-1.5829,-1.5831,-1.5849,-1.5858,-1.5857,-1.5837,-1.5833,-1.5862,-1.5866,-1.587,-1.5948,-1.5874,-1.5877,-1.5879,-1.604,-1.6043,-1.6045,0,0,0,0,0,0,-1.5794,-1.5802,-1.5863,-1.5832,-1.5839,-1.5833,-1.5853,-1.585,-1.5861,-1.586,-1.5858,-1.585,-1.586,-1.5866,-1.5913,-1.5948,-1.5879,-1.5882,-1.6037,-1.6041,-1.6044,-1.6104,0,0,0,0,0,0,-1.5792,-1.5802,-1.5827,-1.5833,-1.5841,-1.5905,-1.5855,-1.5853,-1.5867,-1.5862,-1.5871,-1.587,-1.5859,-1.5908,-1.5916,-1.5951,-1.5884,-1.6034,-1.6039,-1.6043,-1.6099,-1.6109,-1.6118,0,0,0,0,0,-1.5789,-1.5843,-1.5828,-1.5836,-1.5872,-1.5907,-1.5912,-1.5898,-1.587,-1.5895,-1.5894,-1.587,-1.5943,-1.5914,-1.5922,-1.5959,-1.6031,-1.6037,-1.6043,-1.6094,-1.6107,-1.6118,0,0,0,0,0,0,-1.5841,-1.5843,-1.5827,-1.5884,-1.5896,-1.5899,-1.5931,-1.5912,-1.5932,-1.5926,-1.5908,-1.591,-1.5961,-1.5964,-1.5932,-1.6022,-1.5982,-1.599,-1.6019,-1.6031,-1.604,-1.6039,-1.5887,0,0,0,0,0,-1.5859,-1.5888,-1.5888,-1.5938,-1.5945,-1.5937,-1.5952,-1.594,-1.5951,-1.5956,-1.5958,-1.597,-1.5996,-1.6013,-1.6036,-1.6098,-1.61,-1.6127,-1.6137,-1.6145,-1.6152,-1.6185,-1.6198,-1.6064,-1.6064,-1.6064,0,0,-1.5897,-1.5902,-1.5921,-1.5949,-1.5957,-1.5987,-1.5941,-1.5975,-1.5998,-1.5961,-1.6006,-1.6008,-1.602,-1.6075,-1.6099,-1.6079,-1.6189,-1.6152,-1.6158,-1.6161,-1.6192,-1.6205,-1.6216,-1.6068,-1.6067,-1.6066,0,0,-1.5982,-1.5988,-1.6031,-1.6039,-1.6051,-1.6045,-1.6056,-1.6062,-1.6062,-1.6106,-1.6079,-1.6105,-1.6149,-1.6159,-1.617,-1.6257,-1.6237,-1.6265,-1.6317,-1.6349,-1.636,-1.6369,-1.6401,-1.6413,-1.6272,-1.6272,-1.6272,0,-1.6028,-1.6073,-1.6056,-1.6092,-1.6105,-1.6072,-1.6116,-1.6124,-1.6143,-1.6153,-1.613,-1.6185,-1.6191,-1.6247,-1.6269,-1.6278,-1.6289,-1.6265,-1.6359,-1.6369,-1.6377,-1.6408,-1.642,-1.6276,-1.6275,-1.6275,-1.6275,0,-1.6129,-1.616,-1.6193,-1.6213,-1.6229,-1.6268,-1.6257,-1.6276,-1.6262,-1.6258,-1.6304,-1.6309,-1.6333,-1.6345,-1.6332,-1.64,-1.6388,-1.6362,-1.6322,-1.6394,-1.6422,-1.6434,-1.6281,-1.628,-1.6278,-1.6278,0,0,-1.625,-1.6258,-1.6271,-1.6279,-1.6289,-1.6313,-1.635,-1.6373,-1.639,-1.6403,-1.6435,-1.6473,-1.6449,-1.6461,-1.6449,-1.6477,-1.6547,-1.6448,-1.6448,-1.6468,-1.6623,-1.6643,-1.6657,-1.6532,-1.6534,-1.6536,-1.6622,0,-1.6335,-1.64,-1.6385,-1.645,-1.6479,-1.6447,-1.648,-1.649,-1.6487,-1.6511,-1.6507,-1.6535,-1.6501,-1.6508,-1.6535,-1.6533,-1.6578,-1.6526,-1.6562,-1.6564,-1.6562,-1.6672,-1.6693,-1.6775,-1.6633,-1.6635,-1.6636,0,-1.6444,-1.6462,-1.6529,-1.6534,-1.6546,-1.6576,-1.6595,-1.6618,-1.6628,-1.6624,-1.6637,-1.6619,-1.6656,-1.6614,-1.6665,-1.663,-1.6644,-1.6645,-1.6648,-1.6652,-1.6606,-1.6681,-1.68,-1.6813,-1.6654,-1.6652,-1.6651,0,-1.6527,-1.6567,-1.6613,-1.6621,-1.6628,-1.6649,-1.6653,-1.6661,-1.6675,-1.6692,-1.6702,-1.6723,-1.6735,-1.6752,-1.674,-1.671,-1.6793,-1.675,-1.6791,-1.6792,-1.6812,-1.6811,-1.6938,-1.6818,-1.6818,-1.6818,-1.6817,0,-1.6625,-1.6668,-1.665,-1.6679,-1.6726,-1.6707,-1.6754,-1.6754,-1.6761,-1.6788,-1.6762,-1.6788,-1.677,-1.6795,-1.6785,-1.6829,-1.6835,-1.6833,-1.683,-1.6836,-1.6837,-1.6846,-1.6841,-1.6821,-1.682,-1.6819,-1.6819,0,-1.6727,-1.6717,-1.6765,-1.6766,-1.6768,-1.6802,-1.6804,-1.683,-1.6825,-1.686,-1.6867,-1.6859,-1.6887,-1.6876,-1.6905,-1.6898,-1.6956,-1.6945,-1.6953,-1.695,-1.6993,-1.699,-1.7131,-1.7149,-1.7017,-1.7018,-1.7019,0,-1.6791,-1.6823,-1.6828,-1.6845,-1.6851,-1.6878,-1.6892,-1.6875,-1.6891,-1.6905,-1.6929,-1.6955,-1.6974,-1.702,-1.7017,-1.7039,-1.703,-1.7077,-1.7033,-1.7038,-1.7032,-1.7031,-1.7035,-1.7087,-1.7089,-1.709,-1.7091,0,-1.6907,-1.69,-1.6922,-1.6943,-1.6961,-1.6976,-1.6989,-1.7004,-1.6987,-1.7007,-1.7035,-1.705,-1.708,-1.7106,-1.7126,-1.7129,-1.7108,-1.7105,-1.7116,-1.7123,-1.7127,-1.7127,-1.6979,-1.7102,-1.7101,-1.71,-1.7099,-1.7099,-1.6993,-1.702,-1.7028,-1.7053,-1.7061,-1.7074,-1.7098,-1.7096,-1.7119,-1.7142,-1.7129,-1.7162,-1.7171,-1.7195,-1.7201,-1.7227,-1.7208,-1.7224,-1.7228,-1.7233,-1.7239,-1.7122,-1.723,-1.7229,-1.7229,-1.7229,-1.7229,0,-1.7108,-1.7111,-1.7135,-1.7154,-1.7174,-1.7151,-1.7163,-1.7182,-1.7211,-1.7221,-1.724,-1.7272,-1.7297,-1.7295,-1.7318,-1.7338,-1.7329,-1.7345,-1.7344,-1.7346,-1.7254,-1.7243,-1.7352,-1.7352,-1.7352,-1.7352,-1.7352,-1.7352,-1.7171,-1.7216,-1.721,-1.7258,-1.726,-1.7292,-1.7302,-1.7313,-1.7321,-1.7358,-1.7378,-1.7376,-1.7381,-1.7404,-1.7425,-1.7424,-1.7434,-1.7454,-1.745,-1.7364,-1.7352,-1.734,-1.733,-1.7456,-1.7456,-1.7539,-1.754,-1.7541]}]]